DLH4EW EDDH-EDDF

Flight info

Callsign DLH4EW
Flight time 1h 10m
Altitude 30000
Route AMLUH2C AMLUH M852 DENIX DCT RIMET/N0455F310 T157 KOKEB/N0413F230 T157 KERAX KERAX5A
Aircraft A319/M-SDE3FGHIRWY/LB1

Departure

Time 2026-05-06 15:00
Airport Hamburg Helmut Schmidt Airport (EDDH)

Arrival

Time 2026-05-06 16:10
Airport Frankfurt Main Airport (EDDF)
Time Latitude Longitude Altitude Speed Heading
2026-05-06 14:27 53.63206 10.00377 49 ft 0 kts 86°
2026-05-06 14:28 53.63112 10.00383 47 ft 0 kts 87°
2026-05-06 14:48 53.63112 10.00376 48 ft 3 kts 87°
2026-05-06 14:49 53.63111 10.00333 43 ft 2 kts 87°
2026-05-06 14:49 53.63110 10.00296 44 ft 4 kts 100°
2026-05-06 14:49 53.63120 10.00262 45 ft 4 kts 158°
2026-05-06 14:49 53.63128 10.00257 42 ft 0 kts 176°
2026-05-06 14:53 53.63126 10.00257 48 ft 1 kts 176°
2026-05-06 14:53 53.63124 10.00258 48 ft 0 kts 176°
2026-05-06 14:54 53.63121 10.00258 48 ft 1 kts 176°
2026-05-06 14:54 53.63103 10.00260 48 ft 4 kts 176°
2026-05-06 14:54 53.63067 10.00258 48 ft 7 kts 194°
2026-05-06 14:55 53.63021 10.00213 46 ft 8 kts 212°
2026-05-06 14:55 53.62976 10.00164 48 ft 6 kts 212°
2026-05-06 14:55 53.62963 10.00151 46 ft 2 kts 212°
2026-05-06 14:55 53.62933 10.00118 48 ft 6 kts 213°
2026-05-06 14:56 53.62896 10.00078 48 ft 6 kts 213°
2026-05-06 14:56 53.62876 10.00049 47 ft 3 kts 225°
2026-05-06 14:56 53.62862 10.00014 48 ft 4 kts 240°
2026-05-06 14:56 53.62846 9.99964 48 ft 6 kts 243°
2026-05-06 14:57 53.62840 9.99944 47 ft 0 kts 243°
2026-05-06 14:57 53.62836 9.99932 47 ft 0 kts 243°
2026-05-06 14:58 53.62833 9.99922 47 ft 2 kts 243°
2026-05-06 14:58 53.62819 9.99872 44 ft 8 kts 247°
2026-05-06 14:58 53.62815 9.99839 45 ft 0 kts 263°
2026-05-06 14:58 53.62828 9.99788 42 ft 11 kts 309°
2026-05-06 14:59 53.62899 9.99716 45 ft 13 kts 332°
2026-05-06 14:59 53.63071 9.99568 43 ft 61 kts 333°
2026-05-06 14:59 53.63658 9.99063 47 ft 126 kts 333°
2026-05-06 14:59 53.64582 9.98263 261 ft 157 kts 336°
2026-05-06 15:00 53.65594 9.97384 677 ft 179 kts 337°
2026-05-06 15:00 53.66803 9.96392 1071 ft 203 kts 338°
2026-05-06 15:00 53.68158 9.95310 1527 ft 224 kts 340°
2026-05-06 15:00 53.69591 9.94711 2692 ft 206 kts
2026-05-06 15:01 53.71005 9.94809 3653 ft 203 kts
2026-05-06 15:01 53.72427 9.95156 4368 ft 209 kts 23°
2026-05-06 15:01 53.73574 9.96593 5080 ft 210 kts 60°
2026-05-06 15:01 53.73976 9.98971 5868 ft 213 kts 81°
2026-05-06 15:02 53.74186 10.01480 6624 ft 220 kts 85°
2026-05-06 15:02 53.73980 10.04059 7333 ft 230 kts 105°
2026-05-06 15:02 53.73236 10.06621 7724 ft 256 kts 118°
2026-05-06 15:02 53.72301 10.09307 8330 ft 271 kts 118°
2026-05-06 15:03 53.71355 10.12102 9159 ft 278 kts 118°
2026-05-06 15:03 53.70394 10.14970 10034 ft 284 kts 118°
2026-05-06 15:03 53.69217 10.17747 10378 ft 308 kts 133°
2026-05-06 15:03 53.67498 10.20135 10656 ft 333 kts 147°
2026-05-06 15:04 53.65381 10.21877 11252 ft 343 kts 159°
2026-05-06 15:04 53.63078 10.22974 12048 ft 346 kts 164°
2026-05-06 15:04 53.60747 10.24028 12872 ft 347 kts 164°
2026-05-06 15:04 53.58404 10.25114 13608 ft 352 kts 164°
2026-05-06 15:05 53.56034 10.26218 14271 ft 355 kts 164°
2026-05-06 15:05 53.53646 10.27326 14943 ft 358 kts 165°
2026-05-06 15:05 53.51181 10.27923 15596 ft 361 kts 180°
2026-05-06 15:05 53.49514 10.27908 16024 ft 363 kts 181°
2026-05-06 15:06 53.46977 10.27850 16686 ft 366 kts 181°
2026-05-06 15:06 53.44424 10.27773 17331 ft 369 kts 182°
2026-05-06 15:06 53.41839 10.27688 17967 ft 373 kts 182°
2026-05-06 15:06 53.39234 10.27604 18537 ft 376 kts 182°
2026-05-06 15:07 53.36605 10.27525 19089 ft 380 kts 182°
2026-05-06 15:07 53.33945 10.27444 19639 ft 383 kts 182°
2026-05-06 15:07 53.31271 10.27363 20205 ft 386 kts 182°
2026-05-06 15:07 53.28567 10.27283 20751 ft 390 kts 181°
2026-05-06 15:08 53.25849 10.27204 21321 ft 392 kts 181°
2026-05-06 15:08 53.23111 10.27123 21846 ft 395 kts 181°
2026-05-06 15:08 53.20348 10.27043 22337 ft 398 kts 181°
2026-05-06 15:08 53.17608 10.26964 22827 ft 401 kts 181°
2026-05-06 15:09 53.14800 10.26886 23291 ft 405 kts 181°
2026-05-06 15:09 53.11974 10.26808 23726 ft 408 kts 181°
2026-05-06 15:09 53.09134 10.26729 24159 ft 409 kts 181°
2026-05-06 15:09 53.06276 10.26651 24570 ft 412 kts 180°
2026-05-06 15:10 53.03397 10.26575 24957 ft 414 kts 180°
2026-05-06 15:10 53.00508 10.26498 25335 ft 417 kts 180°
2026-05-06 15:10 52.97600 10.26420 25740 ft 419 kts 180°
2026-05-06 15:10 52.94678 10.26336 26146 ft 421 kts 180°
2026-05-06 15:11 52.91735 10.26251 26553 ft 423 kts 180°
2026-05-06 15:11 52.88775 10.26164 26943 ft 426 kts 180°
2026-05-06 15:11 52.85805 10.26079 27323 ft 428 kts 180°
2026-05-06 15:11 52.82811 10.25996 27682 ft 431 kts 180°
2026-05-06 15:12 52.79803 10.25910 28074 ft 433 kts 181°
2026-05-06 15:12 52.76781 10.25823 28451 ft 435 kts 181°
2026-05-06 15:12 52.73748 10.25740 28822 ft 437 kts 181°
2026-05-06 15:12 52.70699 10.25655 29153 ft 440 kts 181°
2026-05-06 15:13 52.67633 10.25570 29481 ft 442 kts 181°
2026-05-06 15:13 52.64543 10.25485 29758 ft 444 kts 181°
2026-05-06 15:13 52.61467 10.25400 29838 ft 438 kts 181°
2026-05-06 15:14 52.55434 10.25226 29831 ft 432 kts 182°
2026-05-06 15:14 52.49445 10.25063 29833 ft 433 kts 182°
2026-05-06 15:15 52.43415 10.24904 29831 ft 433 kts 182°
2026-05-06 15:15 52.37384 10.24739 29826 ft 433 kts 182°
2026-05-06 15:16 52.31355 10.24565 29801 ft 433 kts 182°
2026-05-06 15:16 52.25334 10.24398 29805 ft 433 kts 182°
2026-05-06 15:17 52.19311 10.24232 29809 ft 432 kts 182°
2026-05-06 15:17 52.13305 10.24070 29809 ft 432 kts 182°
2026-05-06 15:18 52.07292 10.23911 29794 ft 432 kts 182°
2026-05-06 15:18 52.01289 10.23746 29784 ft 431 kts 182°
2026-05-06 15:19 51.95300 10.23580 29781 ft 431 kts 182°
2026-05-06 15:19 51.89308 10.23428 29781 ft 431 kts 182°
2026-05-06 15:20 51.83314 10.23269 29761 ft 430 kts 182°
2026-05-06 15:20 51.77344 10.23105 29800 ft 428 kts 183°
2026-05-06 15:21 51.71427 10.22956 29787 ft 418 kts 184°
2026-05-06 15:21 51.65663 10.22807 29788 ft 412 kts 184°
2026-05-06 15:22 51.59961 10.22652 29760 ft 412 kts 184°
2026-05-06 15:22 51.54224 10.22489 29782 ft 413 kts 184°
2026-05-06 15:23 51.48473 10.22340 29786 ft 413 kts 184°
2026-05-06 15:23 51.42729 10.22198 29778 ft 413 kts 184°
2026-05-06 15:24 51.37020 10.22042 29769 ft 412 kts 184°
2026-05-06 15:24 51.31279 10.21885 29748 ft 413 kts 183°
2026-05-06 15:25 51.25524 10.21776 29742 ft 414 kts 183°
2026-05-06 15:25 51.19753 10.21672 29746 ft 415 kts 183°
2026-05-06 15:26 51.13983 10.21548 29750 ft 415 kts 183°
2026-05-06 15:26 51.08209 10.21426 29205 ft 415 kts 183°
2026-05-06 15:26 51.05307 10.21373 28080 ft 419 kts 183°
2026-05-06 15:27 51.02372 10.21325 26971 ft 424 kts 183°
2026-05-06 15:27 50.99428 10.21280 26214 ft 422 kts 183°
2026-05-06 15:27 50.96506 10.21234 25509 ft 418 kts 183°
2026-05-06 15:27 50.93611 10.21187 24831 ft 414 kts 183°
2026-05-06 15:28 50.90731 10.21138 24178 ft 412 kts 183°
2026-05-06 15:28 50.87869 10.21085 23574 ft 411 kts 183°
2026-05-06 15:28 50.85035 10.20680 22920 ft 407 kts 194°
2026-05-06 15:28 50.82385 10.19236 22245 ft 401 kts 207°
2026-05-06 15:29 50.80028 10.16929 21569 ft 397 kts 218°
2026-05-06 15:29 50.78023 10.13960 20846 ft 395 kts 229°
2026-05-06 15:29 50.76424 10.10436 20133 ft 395 kts 240°
2026-05-06 15:29 50.75186 10.06630 19446 ft 395 kts 242°
2026-05-06 15:30 50.73962 10.02799 19087 ft 386 kts 242°
2026-05-06 15:30 50.72619 9.99171 18661 ft 380 kts 231°
2026-05-06 15:30 50.70868 9.96076 18184 ft 377 kts 226°
2026-05-06 15:30 50.69093 9.93061 17638 ft 374 kts 226°
2026-05-06 15:31 50.67321 9.90072 17083 ft 372 kts 226°
2026-05-06 15:31 50.65554 9.87115 16543 ft 369 kts 226°
2026-05-06 15:31 50.63798 9.84189 16010 ft 366 kts 226°
2026-05-06 15:32 50.60340 9.78397 15090 ft 358 kts 226°
2026-05-06 15:32 50.58648 9.75563 14752 ft 350 kts 226°
2026-05-06 15:32 50.57012 9.72830 14621 ft 337 kts 226°
2026-05-06 15:32 50.55421 9.70175 14312 ft 331 kts 226°
2026-05-06 15:33 50.53850 9.67552 13917 ft 328 kts 226°
2026-05-06 15:33 50.52290 9.64952 13493 ft 326 kts 226°
2026-05-06 15:33 50.50734 9.62366 12974 ft 325 kts 226°
2026-05-06 15:33 50.49185 9.59796 12525 ft 323 kts 226°
2026-05-06 15:34 50.47648 9.57245 12076 ft 320 kts 226°
2026-05-06 15:34 50.46126 9.54717 11650 ft 317 kts 226°
2026-05-06 15:34 50.44618 9.52213 11185 ft 315 kts 226°
2026-05-06 15:34 50.43116 9.49723 10732 ft 313 kts 226°
2026-05-06 15:35 50.41625 9.47255 10302 ft 311 kts 226°
2026-05-06 15:35 50.40146 9.44812 9922 ft 307 kts 226°
2026-05-06 15:35 50.38702 9.42432 9789 ft 295 kts 226°
2026-05-06 15:35 50.37314 9.40146 9665 ft 284 kts 226°
2026-05-06 15:36 50.35976 9.37941 9461 ft 276 kts 226°
2026-05-06 15:36 50.34664 9.35780 9138 ft 272 kts 226°
2026-05-06 15:36 50.33376 9.33658 8950 ft 262 kts 226°
2026-05-06 15:36 50.32151 9.31645 8726 ft 249 kts 226°
2026-05-06 15:37 50.30960 9.29692 8375 ft 247 kts 226°
2026-05-06 15:37 50.29779 9.27758 8041 ft 245 kts 226°
2026-05-06 15:37 50.28608 9.25839 7683 ft 244 kts 226°
2026-05-06 15:37 50.27455 9.23949 7503 ft 235 kts 226°
2026-05-06 15:38 50.26333 9.22124 7217 ft 232 kts 226°
2026-05-06 15:38 50.25228 9.20356 6936 ft 229 kts 226°
2026-05-06 15:38 50.24102 9.18569 6680 ft 228 kts 226°
2026-05-06 15:38 50.23003 9.16825 6437 ft 228 kts 226°
2026-05-06 15:39 50.21895 9.15070 6197 ft 226 kts 226°
2026-05-06 15:39 50.20795 9.13319 5945 ft 226 kts 226°
2026-05-06 15:39 50.19700 9.11576 5683 ft 224 kts 226°
2026-05-06 15:39 50.18613 9.09839 5467 ft 223 kts 226°
2026-05-06 15:40 50.17526 9.08105 5267 ft 223 kts 226°
2026-05-06 15:40 50.16440 9.06379 5104 ft 223 kts 226°
2026-05-06 15:40 50.15360 9.04659 4954 ft 221 kts 226°
2026-05-06 15:40 50.14439 9.02760 4803 ft 221 kts 243°
2026-05-06 15:41 50.13865 9.00533 4656 ft 221 kts 249°
2026-05-06 15:41 50.13350 8.98282 4507 ft 220 kts 249°
2026-05-06 15:41 50.12827 8.96029 4353 ft 222 kts 249°
2026-05-06 15:41 50.12300 8.93775 4202 ft 220 kts 249°
2026-05-06 15:42 50.11781 8.91561 4072 ft 220 kts 249°
2026-05-06 15:42 50.11249 8.89293 4016 ft 219 kts 249°
2026-05-06 15:42 50.10724 8.87059 4020 ft 220 kts 249°
2026-05-06 15:42 50.10198 8.84823 4021 ft 220 kts 249°
2026-05-06 15:43 50.09669 8.82579 4025 ft 220 kts 249°
2026-05-06 15:43 50.09152 8.80381 4025 ft 219 kts 249°
2026-05-06 15:43 50.08610 8.78073 3330 ft 233 kts 250°
2026-05-06 15:43 50.08062 8.75696 2789 ft 231 kts 250°
2026-05-06 15:44 50.07533 8.73411 2530 ft 215 kts 250°
2026-05-06 15:44 50.07001 8.71311 2561 ft 204 kts 249°
2026-05-06 15:44 50.06488 8.69306 2379 ft 193 kts 250°
2026-05-06 15:44 50.06034 8.67362 2443 ft 189 kts 252°
2026-05-06 15:45 50.05623 8.65493 2297 ft 181 kts 251°
2026-05-06 15:45 50.05180 8.63632 1722 ft 190 kts 251°
2026-05-06 15:45 50.04703 8.61769 1938 ft 184 kts 248°
2026-05-06 15:45 50.04207 8.59947 2634 ft 178 kts 248°
2026-05-06 15:46 50.03697 8.58121 3502 ft 191 kts 246°
2026-05-06 15:46 50.03163 8.56221 3651 ft 190 kts 246°
2026-05-06 15:46 50.02627 8.54351 3747 ft 188 kts 245°
2026-05-06 15:46 50.02077 8.52498 3886 ft 189 kts 245°
2026-05-06 15:47 50.01507 8.50644 4027 ft 190 kts 244°
2026-05-06 15:47 50.00924 8.48806 4066 ft 190 kts 243°
2026-05-06 15:47 50.00326 8.46980 4032 ft 189 kts 242°
2026-05-06 15:47 49.99718 8.45179 3952 ft 187 kts 242°
2026-05-06 15:48 49.99097 8.43396 3865 ft 188 kts 241°
2026-05-06 15:48 49.98479 8.41608 3990 ft 189 kts 242°
2026-05-06 15:48 49.97864 8.39807 4024 ft 189 kts 242°
2026-05-06 15:48 49.97255 8.38004 4162 ft 188 kts 242°
2026-05-06 15:49 49.96627 8.36210 4421 ft 190 kts 241°
2026-05-06 15:49 49.95956 8.34433 4671 ft 191 kts 233°
2026-05-06 15:49 49.95002 8.32988 4916 ft 195 kts 220°
2026-05-06 15:49 49.93835 8.31668 4999 ft 218 kts 213°
2026-05-06 15:50 49.92389 8.30868 5026 ft 228 kts 185°
2026-05-06 15:50 49.90841 8.31410 5013 ft 234 kts 155°
2026-05-06 15:50 49.89620 8.33100 5014 ft 242 kts 126°
2026-05-06 15:50 49.89071 8.35565 5017 ft 248 kts 94°
2026-05-06 15:51 49.89152 8.38244 5013 ft 250 kts 86°
2026-05-06 15:51 49.89286 8.40923 5012 ft 249 kts 86°
2026-05-06 15:51 49.89418 8.43607 5009 ft 250 kts 87°
2026-05-06 15:51 49.89547 8.46298 5011 ft 250 kts 86°
2026-05-06 15:52 49.89673 8.48956 5009 ft 250 kts 87°
2026-05-06 15:52 49.89759 8.50770 5011 ft 250 kts 87°
2026-05-06 15:52 49.89924 8.54332 5011 ft 250 kts 87°
2026-05-06 15:52 49.90046 8.57028 5013 ft 250 kts 87°
2026-05-06 15:53 49.90129 8.58844 5013 ft 249 kts 88°
2026-05-06 15:53 49.90252 8.61529 5013 ft 250 kts 88°
2026-05-06 15:53 49.90371 8.64185 5010 ft 250 kts 87°
2026-05-06 15:53 49.90494 8.66960 5020 ft 271 kts 88°
2026-05-06 15:54 49.90626 8.69938 5009 ft 279 kts 87°
2026-05-06 15:54 49.90763 8.72958 5008 ft 282 kts 87°
2026-05-06 15:54 49.90901 8.75996 5006 ft 283 kts 87°
2026-05-06 15:54 49.91039 8.79045 5007 ft 283 kts 87°
2026-05-06 15:55 49.91175 8.82092 5006 ft 283 kts 88°
2026-05-06 15:55 49.91310 8.85140 5010 ft 283 kts 88°
2026-05-06 15:55 49.91442 8.88191 5009 ft 283 kts 88°
2026-05-06 15:55 49.91571 8.91236 5007 ft 281 kts 88°
2026-05-06 15:56 49.91693 8.94176 5001 ft 265 kts 88°
2026-05-06 15:56 49.91812 8.96997 5005 ft 258 kts 88°
2026-05-06 15:56 49.91929 8.99726 5008 ft 252 kts 88°
2026-05-06 15:56 49.92044 9.02432 5008 ft 251 kts 87°
2026-05-06 15:57 49.92372 9.05096 5012 ft 253 kts 73°
2026-05-06 15:57 49.92955 9.07669 5005 ft 252 kts 76°
2026-05-06 15:57 49.92906 9.10304 5007 ft 246 kts 114°
2026-05-06 15:57 49.91963 9.12451 5010 ft 239 kts 142°
2026-05-06 15:58 49.90561 9.13762 5011 ft 234 kts 165°
2026-05-06 15:58 49.88970 9.14123 4663 ft 234 kts 188°
2026-05-06 15:58 49.87420 9.13374 4134 ft 245 kts 216°
2026-05-06 15:58 49.86286 9.11370 4006 ft 253 kts 245°
2026-05-06 15:59 49.85976 9.08735 4006 ft 245 kts 275°
2026-05-06 15:59 49.86574 9.06345 4009 ft 239 kts 306°
2026-05-06 15:59 49.87887 9.04827 4010 ft 237 kts 336°
2026-05-06 15:59 49.89470 9.04102 4005 ft 238 kts 343°
2026-05-06 16:00 49.91082 9.03502 4006 ft 239 kts 343°
2026-05-06 16:00 49.92700 9.02934 4014 ft 238 kts 344°
2026-05-06 16:00 49.94322 9.02378 4015 ft 238 kts 344°
2026-05-06 16:00 49.95967 9.02061 4018 ft 241 kts 360°
2026-05-06 16:01 49.97643 9.02286 4016 ft 242 kts
2026-05-06 16:01 49.99312 9.02578 4010 ft 242 kts
2026-05-06 16:01 50.00984 9.02876 4012 ft 242 kts
2026-05-06 16:01 50.02654 9.03174 4012 ft 241 kts
2026-05-06 16:02 50.04324 9.03474 4012 ft 242 kts
2026-05-06 16:02 50.05991 9.03788 4011 ft 242 kts
2026-05-06 16:02 50.07665 9.04094 4015 ft 242 kts
2026-05-06 16:02 50.09340 9.04387 4018 ft 241 kts
2026-05-06 16:03 50.11009 9.04473 4010 ft 239 kts 348°
2026-05-06 16:03 50.12464 9.03420 4009 ft 233 kts 314°
2026-05-06 16:03 50.13352 9.01404 4011 ft 224 kts 285°
2026-05-06 16:03 50.13479 8.99032 4015 ft 220 kts 257°
2026-05-06 16:04 50.13007 8.96781 4012 ft 218 kts 249°
2026-05-06 16:04 50.12481 8.94552 4015 ft 220 kts 249°
2026-05-06 16:04 50.11960 8.92331 4013 ft 210 kts 249°
2026-05-06 16:04 50.11484 8.90299 4015 ft 189 kts 249°
2026-05-06 16:05 50.11055 8.88470 4026 ft 173 kts 249°
2026-05-06 16:05 50.10647 8.86732 4018 ft 170 kts 249°
2026-05-06 16:05 50.10242 8.85011 3887 ft 168 kts 249°
2026-05-06 16:05 50.09838 8.83297 3691 ft 168 kts 250°
2026-05-06 16:06 50.09440 8.81604 3486 ft 165 kts 250°
2026-05-06 16:06 50.09050 8.79952 3272 ft 167 kts 250°
2026-05-06 16:06 50.08649 8.78251 3056 ft 168 kts 249°
2026-05-06 16:06 50.08243 8.76532 2843 ft 174 kts 250°
2026-05-06 16:07 50.07806 8.74685 2575 ft 188 kts 251°
2026-05-06 16:07 50.07366 8.72830 2325 ft 175 kts 253°
2026-05-06 16:07 50.06956 8.71094 2109 ft 170 kts 252°
2026-05-06 16:07 50.06550 8.69379 1884 ft 164 kts 252°
2026-05-06 16:08 50.06173 8.67792 1669 ft 149 kts 252°
2026-05-06 16:08 50.05829 8.66342 1468 ft 137 kts 252°
2026-05-06 16:08 50.05513 8.65010 1289 ft 128 kts 254°
2026-05-06 16:08 50.05202 8.63699 1095 ft 127 kts 251°
2026-05-06 16:09 50.04899 8.62422 892 ft 123 kts 252°
2026-05-06 16:09 50.04589 8.61138 748 ft 128 kts 252°
2026-05-06 16:09 50.04276 8.59831 578 ft 129 kts 250°
2026-05-06 16:09 50.03972 8.58531 406 ft 127 kts 252°
2026-05-06 16:10 50.03698 8.57339 358 ft 102 kts 249°
2026-05-06 16:10 50.03540 8.56703 352 ft 42 kts 249°
2026-05-06 16:10 50.03448 8.56301 359 ft 32 kts 257°
2026-05-06 16:10 50.03444 8.55998 346 ft 28 kts 277°
2026-05-06 16:11 50.03472 8.55746 344 ft 21 kts 279°
2026-05-06 16:11 50.03490 8.55551 345 ft 18 kts 274°
2026-05-06 16:11 50.03466 8.55360 346 ft 19 kts 249°
2026-05-06 16:11 50.03420 8.55166 352 ft 20 kts 250°
2026-05-06 16:12 50.03371 8.54962 345 ft 21 kts 250°
2026-05-06 16:12 50.03319 8.54751 339 ft 18 kts 249°
2026-05-06 16:12 50.03306 8.54696 338 ft 1 kts 249°
2026-05-06 16:12 50.03301 8.54676 335 ft 3 kts 249°
2026-05-06 16:13 50.03292 8.54638 338 ft 5 kts 249°
2026-05-06 16:13 50.03277 8.54574 336 ft 6 kts 250°
2026-05-06 16:13 50.03280 8.54515 335 ft 5 kts 292°
2026-05-06 16:13 50.03309 8.54481 338 ft 6 kts 338°
2026-05-06 16:14 50.03338 8.54464 338 ft 0 kts 341°
2026-05-06 16:18 50.03342 8.54462 337 ft 4 kts 341°
2026-05-06 16:19 50.03460 8.54396 344 ft 21 kts 340°
2026-05-06 16:19 50.03585 8.54324 341 ft 11 kts 339°
2026-05-06 16:19 50.03657 8.54338 344 ft 11 kts 45°
2026-05-06 16:19 50.03692 8.54456 343 ft 12 kts 70°
2026-05-06 16:20 50.03709 8.54529 352 ft 0 kts 70°
2026-05-06 16:21 50.03710 8.54531 351 ft 1 kts 70°
2026-05-06 16:21 50.03731 8.54620 348 ft 12 kts 70°
2026-05-06 16:21 50.03757 8.54733 349 ft 11 kts 70°
2026-05-06 16:22 50.03783 8.54842 353 ft 11 kts 69°
2026-05-06 16:22 50.03809 8.54946 354 ft 10 kts 69°
2026-05-06 16:22 50.03835 8.55053 348 ft 11 kts 69°
2026-05-06 16:22 50.03862 8.55166 349 ft 12 kts 70°
2026-05-06 16:23 50.03891 8.55292 351 ft 13 kts 70°
2026-05-06 16:23 50.03921 8.55421 349 ft 13 kts 69°
2026-05-06 16:23 50.03954 8.55555 357 ft 15 kts 69°
2026-05-06 16:23 50.03994 8.55719 349 ft 16 kts 70°
2026-05-06 16:24 50.04032 8.55882 353 ft 14 kts 70°
2026-05-06 16:24 50.04077 8.55967 353 ft 10 kts 19°
2026-05-06 16:24 50.04160 8.55932 352 ft 15 kts 339°
2026-05-06 16:24 50.04252 8.55949 357 ft 13 kts 25°
2026-05-06 16:25 50.04338 8.55931 359 ft 13 kts 340°
2026-05-06 16:25 50.04423 8.55911 357 ft 13 kts
2026-05-06 16:25 50.04510 8.55949 364 ft 14 kts 17°
2026-05-06 16:25 50.04583 8.55976 356 ft 10 kts 359°
2026-05-06 16:26 50.04645 8.55942 362 ft 5 kts 339°
2026-05-06 16:26 50.04656 8.55936 359 ft 0 kts 340°
2026-05-06 16:26 50.04657 8.55936 359 ft 0 kts 340°